Погода в Магнитогорске

Хотите узнать прогноз погоды в Магнитогорске? Тогда Вам сюда: Погода в Магнитогорске

Поиск расширенной информации на нашем сайте:

Полезная информация:

Новости сайта



02.01.2020
Опубликован Долгосрочный прогноз погоды по городам России и ближнего зарубежья на январь 2020 года.
Карты: Прогноз на январь и февраль 2020 года, Сравнение прогнозируемой аномалии приземной температуры воздуха на январь 2020 года по разным моделям.




Погода в Магнитогорске - сегодня

Время (UTC), дата Ветер
(°,м/с) 
Видим.   Явления Облачность Т
(°С)
Тd
(°С)
f(%) Тe
(°С)
Pmin
(гПа)
dP
(гПа)
Po
(мм)
O2
(г/м3)
Тmin Tmax R s Состояние
почвы
06 05.04.20 300 (СЗ) 20000 м  {дождь}  ясно 
+10 -4.2 36 +9  1013.2  0.8  726  282           
09 05.04.20 240 (ЮЗ) 20000 м    ясно 
+12.8 -4.6 29 +12  1012.3  -0.5  725  280           
12 05.04.20 260 (З) 5{10}  20000 м    4/0 средняя 
[Ac trans]
+13.2 -7.9 22 +12  1011.4  -0.8  725  279           
15 05.04.20 240 (ЮЗ) 20000 м    6/0 верхняя 
[Ci fib]
+7.7 -4 43 +6  1012.1  -0.2  725  284    +13.7       
18 05.04.20 260 (З) 2{15}  10 км    6/0 верхняя 
[Cc]
+5.5 -0.4 66 +5  1011.7  -0.7  724  286           
21 05.04.20 190 (Ю) 10 км    8/0 средняя 
[Ac trans]
+1.3 -0.8 86 +2  1010.8  -1.5  723  290           
00 06.04.20 тихо ()   10 км    10/0 средняя 
[Ac As]
+1.7 -0.8 83 +2  1010  -0.8  722  289           
03 06.04.20 200 (Ю) 20000 м  {дождь}  8/8 600 м 
[Sc]
+2.3 +0.4 87 +1  1008.3  -1.4  721  288  -0.3    0.0    влажная 
06 06.04.20 250 (З) 6-11{11}  20000 м  {дождь}  8/8 600 м 
[Sc]
+5.7 -3 54 +3  1006.8  -0.9  721  285           
09 06.04.20 280 (З) 6-10{13}  20000 м    8/8 600 м 
[Sc]
+5.4 -5.3 46 +3  1007.1  0.2  721  285           
12 06.04.20 270 (З) 7-12{12}  20000 м    8/8 600 м 
[Sc]
+4.7 -6 46 +2  1007.6  0.3  721  286           
15 06.04.20 310 (СЗ) 3{12}  20000 м    3/3 600 м 
[Sc]
+1.8 -6.5 54 1008.7  0.6  721  289    +6.4       
18 06.04.20 330 (СЗ) 5-10{12}  4000 м  слаб. снег  10/10 600 м 
[Sc]
-0.7 -4.2 77 -4  1007.9  0.6  721  291           
21 06.04.20 350 (С) 6{10}  4000 м  слаб. снег  10/10 600 м 
[Ns]
-1.1 -3.6 83 -5  1006.6  -1.3  720  291           
00 07.04.20 010 (С) 10-14{15}  4000 м  слаб. снег  10/10 600 м 
[Ns]
-2 -4.9 80 -7  1006.2  -0.5  719  292           
03 07.04.20 350 (С) 10-15{17}  20000 м  {снег}  10/10 600 м 
[Sc]
-1.5 -10.6 50 -7  1006.5  0.4  719  292  -2    0.2  <0.5  сухой снег
50-90% 
06 07.04.20 350 (С) 13-21{22}  20000 м  {снег}  9/9 600 м 
[Sc]
+0.9 -14 32 -4  1006.8  0.6  720  290           
09 07.04.20 340 (С) 11-19{23}  20000 м    8/8 600 м 
[Sc]
+1.2 -13.4 33 -4  1008.5  1.8  721  290           
12 07.04.20 310 (СЗ) 9-16{20}  20000 м    8/8 600 м 
[Sc]
+1.5 -17.3 23 -3  1010.3  1.7  723  291           
15 07.04.20 290 (З) 6-11{17}  20000 м    ясно 
-0.9 -14.4 35 -5  1013.1  2.3  724  294    +2.3       
18 07.04.20 290 (З) 4-10{11}  10 км    ясно 
-3 -9.4 61 -6  1014.6  1.1  725  296           
21 07.04.20 270 (З) 5{12}  10 км    ясно 
-4.2 -8.9 70 -8  1014.2  -0.6  725  297           
00 08.04.20 280 (З) 10 км    ясно 
-5 -11.1 62 -8  1014.1  -0.3  724  298           
03 08.04.20 280 (З) 20000 м    ясно 
-4.3 -10.4 62 -7  1014.3  0.3  725  298  -5.4        замёрзшая 
06 08.04.20 300 (СЗ) 6-10{10}  20000 м  {снег}  8/8 600 м кучево-дожд. 
[Cb cap]
-2.5 -16 35 -6  1014.3  0.2  725  296           
Время (UTC), дата Ветер
(°,м/с) 
Видим.   Явления Облачность Т
(°С)
Тd
(°С)
f(%) Тe
(°С)
Pmin
(гПа)
dP
(гПа)
Po
(мм)
O2
(г/м3)
Тmin Tmax R s Состояние
почвы

Для получения пояснительной информации подведите курсор к названию столбца.

ПОГОДА в Магнитогорске - архив

Всё, что Вы хотите узнать о погоде в Магнитогорске - удобно и подробно!

Выберите нужную дату (начиная с 1 января 2019* года) и нажмите кнопку "Найти".
Будут отображены архивные сводки погоды по пункту Магнитогорск, начиная с указанной даты.


Отображать данные в формате CSV (для использования в таблицах Excel)


Внимание! Наш архив погоды предназначен исключительно для личного некоммерческого использования в познавательных целях. Если Вам необходимы официальные справки о состоянии погоды (для производственных, юридических, коммерческих и т.п. целей), обращайтесь в органы Росгидромета.

*Примечание: данная дата относится к архиву по метеостанциям СССР (Россия, СНГ, Балтия).
Архив по метеостанциям Зарубежной Европы и Азии (кроме Китая) хранится 10 дней, по другим регионам земного шара (Китай, Африка, Америка, Австралия, Океания) - 1 день.

Магнитогорск - район местоположения метеостанции


Название, широта, долгота, высота метеостанции:
Магнитогорск 53.3°ш. 59.1°д. 384 м над ур. моря [Российская Федерация]

Дополнительная информация

В oтличие oт бoльшинства пoгoдных сайтoв мы публикуем пoдрoбную метеoинфoрмацию в детальнoм прoфессиoнальнoм фoрмате.

Характеристики температуры и влажнoсти вoздуха измеряются на высoте 2 м в тени вдали oт зданий и деревьев.
Скoрoсть ветра измеряется на высoте 10 м (на урoвне рoста челoвека скoрoсть ветра ниже в 1.5-2 раза). Если метеoстанция нахoдится в гoрoде или в лесу, тo скoрoсть ветра занижена на 2-4 м/с пo сравнению с oткрытым местoм. Скoрoсть ветра над акватoриями крупных рек и oзёр, а также на вершинах хoлмoв на 2-5 м/с выше, чем в oбычных услoвиях.
Атмoсфернoе давление в разных тoчках местнoсти мoжет значительнo oтличаться oт давления на метеoстанции, в зависимoсти oт услoвий рельефа (при пoдъёме на 10 м давление пoнижается примернo на 1 мм рт.ст.).